FW8255 Weather Reports


Display with metric or nautical units.
time (UTC)temp
F
wind
direction
speed
MPH
gust
MPH
rain 1hr
in
rain 24hr
in
rain mn
in
humidity
%
barometer
mb
20260508095403 47 266 2.0 3.0 0.00 0.00 0.00 82 1011.7
20260508094900 45 269 4.0 6.0 0.00 0.00 0.00 84 1012.0
20260508094357 45 321 0.0 0.0 0.00 0.00 0.00 86 1011.9
20260508093854 45 312 0.0 2.0 0.00 0.00 0.00 87 1012.0
20260508093351 44 303 1.0 1.0 0.00 0.00 0.00 87 1012.0
20260508092848 44 275 2.0 2.0 0.00 0.00 0.00 87 1012.3
20260508092346 44 321 2.0 2.0 0.00 0.00 0.00 87 1012.0
20260508091844 45 305 1.0 2.0 0.00 0.00 0.00 86 1011.9
20260508091340 45 251 2.0 3.0 0.00 0.00 0.00 85 1012.1
20260508090838 45 234 5.0 6.0 0.00 0.00 0.00 84 1012.2
20260508090337 45 283 3.0 5.0 0.00 0.00 0.00 84 1012.4
20260508085832 45 255 4.0 6.0 0.00 0.00 0.00 84 1012.3
20260508085329 45 243 5.0 7.0 0.00 0.00 0.00 84 1012.2
20260508084825 45 256 3.0 9.0 0.00 0.00 0.00 83 1012.3
20260508084322 45 215 3.0 3.0 0.00 0.00 0.00 84 1012.3
20260508083820 45 270 2.0 6.0 0.00 0.00 0.00 84 1012.2
20260508083317 45 230 3.0 8.0 0.00 0.00 0.00 84 1012.4
20260508082816 45 238 3.0 5.0 0.00 0.00 0.00 85 1012.4
20260508082315 45 309 1.0 5.0 0.00 0.00 0.00 86 1012.3
20260508081812 44 280 3.0 3.0 0.00 0.00 0.00 86 1012.3
20260508081308 44 271 2.0 2.0 0.00 0.00 0.00 87 1012.2
20260508080806 45 309 0.0 2.0 0.00 0.00 0.00 87 1012.2
20260508080304 45 284 1.0 6.0 0.00 0.00 0.00 85 1012.2
20260508075759 45 290 3.0 5.0 0.00 0.00 0.00 85 1012.5
20260508075256 46 233 5.0 6.0 0.00 0.00 0.00 85 1012.3
20260508074755 46 238 4.0 6.0 0.00 0.00 0.00 84 1012.3
20260508074251 46 245 3.0 7.0 0.00 0.00 0.00 83 1012.5
20260508073749 46 293 1.0 8.0 0.00 0.00 0.00 83 1012.4
20260508073247 46 243 7.0 10.0 0.00 0.00 0.00 82 1012.2
20260508072742 46 237 4.0 7.0 0.00 0.00 0.00 82 1012.5
20260508072239 47 256 6.0 8.0 0.00 0.00 0.00 82 1012.5
20260508071737 47 241 6.0 7.0 0.00 0.00 0.00 81 1012.6
20260508071235 47 261 6.0 7.0 0.00 0.00 0.00 81 1012.5
20260508070732 48 241 7.0 14.0 0.00 0.00 0.00 79 1012.7
20260508070231 48 237 4.0 13.0 0.00 0.00 0.00 78 1012.6
20260508065727 48 241 8.0 16.0 0.00 0.00 0.00 77 1012.5
20260508065225 48 206 10.0 15.0 0.00 0.00 0.00 75 1012.5
20260508064723 48 241 5.0 13.0 0.00 0.00 0.00 72 1012.4
20260508064221 48 249 10.0 14.0 0.00 0.00 0.00 72 1012.4
20260508063718 48 261 4.0 5.0 0.00 0.00 0.00 73 1012.7
20260508063216 48 290 2.0 7.0 0.00 0.00 0.00 73 1012.6
20260508062713 47 250 5.0 7.0 0.00 0.00 0.00 73 1012.6
20260508062210 47 234 4.0 6.0 0.00 0.00 0.00 73 1012.6
20260508061707 47 292 2.0 3.0 0.00 0.00 0.00 74 1012.8
20260508061204 46 285 2.0 5.0 0.00 0.00 0.00 75 1012.8
20260508060702 47 304 1.0 1.0 0.00 0.00 0.00 77 1012.6
20260508060158 46 309 0.0 1.0 0.00 0.00 0.00 77 1012.8
20260508055653 46 308 0.0 1.0 0.00 0.00 0.00 77 1012.7
20260508055151 46 318 0.0 3.0 0.00 0.00 0.00 77 1012.5
20260508054647 46 313 0.0 1.0 0.00 0.00 0.00 77 1012.8
20260508054145 46 313 0.0 1.0 0.00 0.00 0.00 77 1013.0
20260508053642 46 302 1.0 1.0 0.00 0.00 0.00 77 1013.0
20260508053139 46 314 0.0 0.0 0.00 0.00 0.00 77 1012.9
20260508052636 46 312 0.0 0.0 0.00 0.00 0.00 77 1013.0
20260508052133 46 307 0.0 1.0 0.00 0.00 0.00 76 1012.9
20260508051629 47 319 0.0 0.0 0.00 0.00 0.00 75 1013.0
20260508051125 47 289 2.0 3.0 0.00 0.00 0.00 74 1013.0
20260508050621 47 313 0.0 2.0 0.00 0.00 0.00 75 1013.0
20260508050119 47 305 0.0 0.0 0.00 0.00 0.00 74 1013.0
20260508045615 47 313 0.0 0.0 0.00 0.00 0.00 74 1013.2
20260508045113 47 313 0.0 0.0 0.00 0.00 0.00 74 1013.3
20260508044610 47 257 2.0 3.0 0.00 0.00 0.00 73 1012.9
20260508044106 48 309 0.0 2.0 0.00 0.00 0.00 73 1013.2
20260508043602 48 305 1.0 2.0 0.00 0.00 0.00 72 1013.1
20260508043100 48 290 2.0 2.0 0.00 0.00 0.00 72 1013.1
20260508042557 48 228 3.0 3.0 0.00 0.00 0.00 72 1013.2
20260508042054 48 296 1.0 6.0 0.00 0.00 0.00 72 1013.0
20260508041550 48 261 3.0 3.0 0.00 0.00 0.00 71 1013.3
20260508041047 48 305 2.0 6.0 0.00 0.00 0.00 71 1013.2
20260508040543 48 257 3.0 6.0 0.00 0.00 0.00 72 1013.3
20260508040042 48 293 2.0 5.0 0.00 0.00 0.00 71 1013.1
20260508035538 48 259 5.0 8.0 0.00 0.00 0.00 71 1013.2
20260508035035 48 263 2.0 3.0 0.00 0.00 0.00 71 1013.2
20260508034532 47 231 3.0 5.0 0.00 0.00 0.00 71 1013.4
20260508034029 47 250 6.0 7.0 0.00 0.00 0.00 71 1013.3
20260508033527 47 257 3.0 5.0 0.00 0.00 0.00 70 1013.4
20260508033025 48 255 3.0 6.0 0.00 0.00 0.00 70 1013.5
20260508032521 48 249 9.0 10.0 0.00 0.00 0.00 68 1013.3
20260508032019 47 248 3.0 7.0 0.00 0.00 0.00 69 1013.3
20260508031516 45 273 2.0 6.0 0.00 0.00 0.00 72 1013.2
20260508031011 45 258 3.0 5.0 0.00 0.00 0.00 74 1013.4
20260508030508 42 276 2.0 2.0 0.00 0.00 0.00 85 1013.3
20260508030007 42 285 0.0 0.0 0.00 0.00 0.00 86 1013.5
20260508025502 41 305 0.0 0.0 0.00 0.00 0.00 86 1013.4
20260508024959 41 311 0.0 0.0 0.00 0.00 0.00 86 1013.4
20260508024455 41 294 0.0 0.0 0.00 0.00 0.00 84 1013.3
20260508023952 41 310 0.0 1.0 0.00 0.00 0.00 84 1013.5
20260508023449 42 311 0.0 1.0 0.00 0.00 0.00 84 1013.1
20260508022946 42 310 0.0 1.0 0.00 0.00 0.00 82 1013.3
20260508022441 42 311 0.0 0.0 0.00 0.00 0.00 82 1013.2
20260508021938 42 311 0.0 0.0 0.00 0.00 0.00 81 1013.1
20260508021435 42 311 0.0 0.0 0.00 0.00 0.00 81 1013.1
20260508020931 43 311 0.0 0.0 0.00 0.00 0.00 80 1013.1
20260508020429 43 311 0.0 0.0 0.00 0.00 0.00 79 1012.8
20260508015926 43 311 0.0 0.0 0.00 0.00 0.00 80 1012.7
20260508015424 43 311 0.0 0.0 0.00 0.00 0.00 77 1012.9
20260508014920 43 311 0.0 0.0 0.00 0.00 0.00 76 1013.0
20260508014417 44 311 0.0 0.0 0.00 0.00 0.00 75 1012.9
20260508013912 44 311 0.0 0.0 0.00 0.00 0.00 74 1012.9
20260508013408 44 311 0.0 0.0 0.00 0.00 0.00 72 1013.0
20260508012906 44 310 0.0 0.0 0.00 0.00 0.00 71 1012.9
20260508012403 45 311 0.0 0.0 0.00 0.00 0.00 70 1012.9
20260508011900 45 310 0.0 0.0 0.00 0.00 0.00 68 1012.6
20260508011359 46 310 0.0 1.0 0.00 0.00 0.00 67 1012.7
20260508010855 46 314 1.0 1.0 0.00 0.00 0.00 66 1012.8
20260508010353 46 310 0.0 1.0 0.00 0.00 0.00 65 1012.9
20260508005850 47 318 0.0 0.0 0.00 0.00 0.00 62 1012.6
20260508005346 47 318 0.0 0.0 0.00 0.00 0.00 61 1012.6
20260508004842 48 316 0.0 1.0 0.00 0.00 0.00 61 1012.9
20260508004339 48 314 0.0 0.0 0.00 0.00 0.00 57 1012.7
20260508003835 49 314 0.0 0.0 0.00 0.00 0.00 57 1012.6
20260508003333 50 309 1.0 1.0 0.00 0.00 0.00 55 1012.8
20260508002830 51 309 0.0 1.0 0.00 0.00 0.00 54 1012.6
20260508002326 51 304 1.0 2.0 0.00 0.00 0.00 53 1012.5
20260508001822 51 274 1.0 2.0 0.00 0.00 0.00 53 1012.3
20260508001319 51 294 2.0 3.0 0.00 0.00 0.00 52 1012.4
20260508000815 52 278 2.0 3.0 0.00 0.00 0.00 51 1012.5
20260508000312 52 288 3.0 5.0 0.00 0.00 0.00 51 1012.5
20260507235808 52 314 1.0 3.0 0.00 0.00 0.00 52 1012.3
20260507235307 52 303 2.0 10.0 0.00 0.00 0.00 50 1012.2
20260507234802 53 319 3.0 6.0 0.00 0.00 0.00 50 1012.4
20260507234259 53 300 3.0 6.0 0.00 0.00 0.00 51 1012.2
20260507233755 53 319 3.0 3.0 0.00 0.00 0.00 50 1012.2
20260507233253 53 289 3.0 7.0 0.00 0.00 0.00 51 1012.2
20260507232751 53 303 3.0 5.0 0.00 0.00 0.00 50 1012.3
20260507232247 53 259 4.0 7.0 0.00 0.00 0.00 49 1012.2
20260507231744 53 250 5.0 9.0 0.00 0.00 0.00 49 1012.2
20260507231241 53 312 3.0 7.0 0.00 0.00 0.00 48 1012.3
20260507230737 53 303 3.0 6.0 0.00 0.00 0.00 49 1012.2
20260507230235 53 286 3.0 7.0 0.00 0.00 0.00 48 1012.2
20260507225734 54 289 4.0 10.0 0.00 0.00 0.00 48 1012.5
20260507225231 55 255 5.0 8.0 0.00 0.00 0.00 48 1012.4
20260507224727 55 285 3.0 7.0 0.00 0.00 0.00 47 1012.4
20260507224224 55 254 5.0 10.0 0.00 0.00 0.00 47 1012.4
20260507223720 55 277 4.0 11.0 0.00 0.00 0.00 46 1012.5
20260507223217 55 266 6.0 8.0 0.00 0.00 0.00 46 1012.3
20260507222713 55 256 2.0 6.0 0.00 0.00 0.00 48 1012.2
20260507222210 55 249 5.0 7.0 0.00 0.00 0.00 48 1012.3
20260507221707 54 293 4.0 7.0 0.00 0.00 0.00 48 1012.5
20260507221203 55 327 8.0 11.0 0.00 0.00 0.00 47 1012.4
20260507220700 55 250 7.0 15.0 0.00 0.00 0.00 49 1012.6
20260507220158 56 292 2.0 5.0 0.00 0.00 0.00 48 1012.6
20260507215654 55 291 5.0 10.0 0.00 0.00 0.00 49 1012.3
20260507215151 55 306 3.0 7.0 0.00 0.00 0.00 49 1012.2
20260507214648 55 278 5.0 8.0 0.00 0.00 0.00 49 1012.3
20260507214145 54 316 3.0 8.0 0.00 0.00 0.00 53 1012.2
20260507213641 53 276 4.0 10.0 0.00 0.00 0.00 55 1012.3
20260507213138 53 283 7.0 13.0 0.00 0.00 0.00 53 1012.2
20260507212634 55 322 5.0 9.0 0.00 0.00 0.00 53 1012.2
20260507212131 54 311 4.0 10.0 0.00 0.00 0.00 55 1012.3
20260507211628 54 279 7.0 13.0 0.00 0.00 0.00 55 1012.3
20260507211123 55 273 5.0 11.0 0.00 0.00 0.00 57 1011.9
20260507210622 55 278 5.0 7.0 0.00 0.00 0.00 57 1012.1
20260507210118 54 299 3.0 5.0 0.00 0.00 0.00 57 1012.0
20260507205615 53 256 8.0 8.0 0.00 0.00 0.00 60 1011.9
20260507205111 55 251 5.0 14.0 0.00 0.00 0.00 58 1012.1
20260507204607 54 296 2.0 11.0 0.00 0.00 0.00 59 1011.9
20260507204105 53 304 4.0 9.0 0.00 0.00 0.00 59 1011.6
20260507203603 53 309 1.0 8.0 0.00 0.00 0.00 60 1011.6
20260507203100 53 340 8.0 11.0 0.00 0.00 0.00 58 1011.9
20260507202555 54 293 4.0 13.0 0.00 0.00 0.00 53 1011.6
20260507202052 55 245 7.0 11.0 0.00 0.00 0.00 53 1011.6
20260507201547 56 256 7.0 13.0 0.00 0.00 0.00 51 1011.4
20260507201044 57 239 10.0 18.0 0.00 0.00 0.00 49 1011.5
20260507200539 54 268 5.0 15.0 0.00 0.00 0.00 52 1011.4
20260507200036 54 235 7.0 14.0 0.00 0.00 0.00 53 1011.7
20260507195533 55 288 5.0 10.0 0.00 0.00 0.00 54 1011.7
20260507195031 54 269 12.0 16.0 0.00 0.00 0.00 53 1011.7
20260507194527 54 282 3.0 7.0 0.00 0.00 0.00 52 1011.9
20260507194023 54 248 6.0 10.0 0.00 0.00 0.00 52 1011.7
20260507193520 56 251 8.0 15.0 0.00 0.00 0.00 50 1012.0
20260507193017 57 240 8.0 15.0 0.00 0.00 0.00 48 1011.9
20260507192513 55 265 5.0 8.0 0.00 0.00 0.00 51 1011.9
20260507192010 56 296 3.0 10.0 0.00 0.00 0.00 52 1012.0
20260507191506 57 298 4.0 6.0 0.00 0.00 0.00 51 1011.7
20260507191003 56 302 5.0 8.0 0.00 0.00 0.00 53 1011.7
20260507190500 55 270 4.0 9.0 0.00 0.00 0.00 53 1012.0
20260507185959 57 263 3.0 7.0 0.00 0.00 0.00 51 1011.7
20260507185456 56 288 5.0 13.0 0.00 0.00 0.00 51 1012.0
20260507184953 55 248 4.0 7.0 0.00 0.00 0.00 52 1011.7
20260507184451 55 264 5.0 10.0 0.00 0.00 0.00 53 1012.0
20260507183948 54 319 4.0 14.0 0.00 0.00 0.00 51 1012.0
20260507183444 56 250 7.0 8.0 0.00 0.00 0.00 51 1011.9
20260507182942 54 269 5.0 8.0 0.00 0.00 0.00 53 1012.1
20260507182438 54 283 4.0 8.0 0.00 0.00 0.00 55 1012.1
20260507181934 55 278 4.0 11.0 0.00 0.00 0.00 55 1012.1
20260507181430 55 236 6.0 15.0 0.00 0.00 0.00 53 1012.3
20260507180927 56 264 5.0 9.0 0.00 0.00 0.00 50 1012.0
20260507180424 57 234 7.0 14.0 0.00 0.00 0.00 52 1012.0
20260507175920 55 244 4.0 7.0 0.00 0.00 0.00 56 1012.1
20260507175417 55 268 4.0 9.0 0.00 0.00 0.00 54 1012.1
20260507174914 55 248 8.0 15.0 0.00 0.00 0.00 53 1012.4
20260507174412 54 265 6.0 8.0 0.00 0.00 0.00 52 1012.3
20260507173909 55 234 8.0 10.0 0.00 0.00 0.00 55 1012.2
20260507173406 54 311 3.0 7.0 0.00 0.00 0.00 54 1012.2
20260507172902 54 306 6.0 9.0 0.00 0.00 0.00 55 1012.3
20260507172359 57 249 6.0 8.0 0.00 0.00 0.00 53 1012.1
20260507171855 56 256 9.0 11.0 0.00 0.00 0.00 51 1012.3
20260507171352 55 307 3.0 11.0 0.00 0.00 0.00 53 1012.2
20260507170849 54 298 5.0 7.0 0.00 0.00 0.00 54 1012.5
20260507170345 55 258 4.0 7.0 0.00 0.00 0.00 54 1012.2
20260507165841 54 282 3.0 6.0 0.00 0.00 0.00 54 1012.3
20260507165337 55 249 5.0 8.0 0.00 0.00 0.00 52 1012.2
20260507164834 55 286 3.0 7.0 0.00 0.00 0.00 52 1012.3
20260507164331 55 271 4.0 11.0 0.00 0.00 0.00 52 1012.5
20260507163828 54 279 9.0 11.0 0.00 0.00 0.00 55 1012.3
20260507163325 55 255 4.0 7.0 0.00 0.00 0.00 54 1012.2
20260507162821 55 290 3.0 6.0 0.00 0.00 0.00 53 1012.4
20260507162317 55 260 5.0 14.0 0.00 0.00 0.00 52 1012.6
20260507161815 55 257 5.0 13.0 0.00 0.00 0.00 55 1012.5
20260507161311 55 256 6.0 10.0 0.00 0.00 0.00 54 1012.6
20260507160808 54 232 6.0 10.0 0.00 0.00 0.00 55 1012.4
20260507160303 54 215 6.0 14.0 0.00 0.00 0.00 55 1012.4
20260507155759 54 298 3.0 7.0 0.00 0.00 0.00 54 1012.4
20260507155255 53 284 6.0 8.0 0.00 0.00 0.00 57 1012.5
20260507154752 55 280 4.0 6.0 0.00 0.00 0.00 52 1012.6
20260507154250 54 275 5.0 10.0 0.00 0.00 0.00 56 1012.6
20260507153746 55 321 5.0 7.0 0.00 0.00 0.00 53 1012.5
20260507153243 54 279 3.0 6.0 0.00 0.00 0.00 55 1012.5
20260507152739 55 227 6.0 10.0 0.00 0.00 0.00 53 1012.5
20260507152236 53 227 6.0 9.0 0.00 0.00 0.00 56 1012.7
20260507151732 53 290 4.0 7.0 0.00 0.00 0.00 57 1012.4
20260507151228 51 268 5.0 6.0 0.00 0.00 0.00 60 1012.7
20260507150725 53 271 5.0 9.0 0.00 0.00 0.00 59 1012.6
20260507150222 52 257 4.0 10.0 0.00 0.00 0.00 63 1012.5
20260507145718 52 294 3.0 8.0 0.00 0.00 0.00 63 1012.7
20260507145215 53 262 2.0 2.0 0.00 0.00 0.00 60 1012.5
20260507144712 53 241 6.0 9.0 0.00 0.00 0.00 63 1012.5
20260507144210 53 248 3.0 6.0 0.00 0.00 0.00 60 1012.7
20260507143706 54 299 2.0 2.0 0.00 0.00 0.00 61 1012.8
20260507143203 53 333 1.0 5.0 0.00 0.00 0.00 62 1012.6
20260507142659 55 358 0.0 2.0 0.00 0.00 0.00 60 1012.4
20260507142155 52 10 0.0 5.0 0.00 0.00 0.00 59 1012.7
20260507141652 52 306 2.0 6.0 0.00 0.00 0.00 57 1012.6
20260507141149 52 215 5.0 6.0 0.00 0.00 0.00 63 1012.6
20260507140645 53 307 3.0 6.0 0.00 0.00 0.00 57 1012.8
20260507140143 52 281 3.0 3.0 0.00 0.00 0.00 60 1012.7
20260507135640 52 328 2.0 3.0 0.00 0.00 0.00 61 1012.7
20260507135137 52 308 2.0 2.0 0.00 0.00 0.00 63 1012.9
20260507134633 51 25 3.0 5.0 0.00 0.00 0.00 62 1013.0
20260507134130 52 235 3.0 3.0 0.00 0.00 0.00 64 1013.0
20260507133625 51 301 3.0 5.0 0.00 0.00 0.00 65 1013.0
20260507133123 50 243 3.0 5.0 0.00 0.00 0.00 66 1013.1
20260507132620 50 298 3.0 5.0 0.00 0.00 0.00 68 1013.1
20260507132116 50 26 0.0 3.0 0.00 0.00 0.00 68 1013.2
20260507131613 49 284 3.0 5.0 0.00 0.00 0.00 72 1013.2
20260507131111 48 304 2.0 7.0 0.00 0.00 0.00 75 1013.2
20260507130607 48 303 2.0 5.0 0.00 0.00 0.00 73 1013.2
20260507130106 48 254 3.0 6.0 0.00 0.00 0.00 73 1013.3
20260507125604 48 253 2.0 3.0 0.00 0.00 0.00 76 1013.4
20260507125101 48 289 2.0 5.0 0.00 0.00 0.00 77 1013.3
20260507124557 47 268 3.0 5.0 0.00 0.00 0.00 78 1013.2
20260507124055 46 232 5.0 6.0 0.00 0.00 0.00 80 1013.2
20260507123553 46 289 3.0 5.0 0.00 0.00 0.00 80 1013.3
20260507123049 46 294 3.0 6.0 0.00 0.00 0.00 80 1013.2
20260507122545 47 278 5.0 6.0 0.00 0.00 0.00 80 1013.2
20260507122041 46 276 3.0 7.0 0.00 0.00 0.00 80 1013.1
20260507121537 45 331 1.0 5.0 0.00 0.00 0.00 81 1012.8
20260507121033 46 312 3.0 5.0 0.00 0.00 0.00 80 1013.1
20260507120529 45 314 2.0 3.0 0.00 0.00 0.00 81 1013.0
20260507120026 45 240 3.0 6.0 0.00 0.00 0.00 82 1012.9
20260507115522 45 25 1.0 3.0 0.00 0.00 0.00 82 1013.0
20260507115018 45 339 2.0 5.0 0.00 0.00 0.00 82 1012.9
20260507114514 44 234 3.0 6.0 0.00 0.00 0.00 83 1013.0
20260507114012 44 343 1.0 7.0 0.00 0.00 0.00 84 1013.0
20260507113509 42 208 3.0 3.0 0.00 0.00 0.00 89 1013.0
20260507113006 42 322 1.0 1.0 0.00 0.00 0.00 94 1013.0
20260507112503 41 359 0.0 2.0 0.00 0.00 0.00 96 1013.1
20260507112000 40 358 0.0 0.0 0.00 0.00 0.00 98 1013.0
20260507111457 39 354 0.0 2.0 0.00 0.00 0.00 98 1013.1
20260507110953 39 340 0.0 0.0 0.00 0.00 0.00 99 1012.9
20260507110450 38 328 0.0 1.0 0.00 0.00 0.00 99 1013.1
20260507105946 37 324 0.0 0.0 0.00 0.00 0.00 99 1013.1
20260507105443 37 325 0.0 1.0 0.00 0.00 0.00 99 1012.7
20260507104940 37 327 0.0 1.0 0.00 0.00 0.00 99 1012.9
20260507104437 37 320 0.0 0.0 0.00 0.00 0.00 99 1012.7
20260507103932 37 320 0.0 0.0 0.00 0.00 0.00 99 1012.8
20260507103429 37 315 0.0 1.0 0.00 0.00 0.00 99 1012.7
20260507102926 38 320 0.0 0.0 0.00 0.00 0.00 99 1012.4
20260507102423 38 327 0.0 0.0 0.00 0.00 0.00 99 1012.7
20260507101919 38 328 0.0 0.0 0.00 0.00 0.00 99 1012.6
20260507101414 38 330 1.0 1.0 0.00 0.00 0.00 99 1012.6
20260507100911 38 330 1.0 1.0 0.00 0.00 0.00 99 1012.5
20260507100409 38 326 0.0 1.0 0.00 0.00 0.00 99 1012.7
20260507095907 38 331 0.0 0.0 0.00 0.00 0.00 99 1012.6